EW2602 Weather Reports


time (UTC)temp
F
wind
direction
speed
knots
gust
knots
rain 1hr
in
rain 24hr
in
rain mn
in
humidity
%
barometer
mb
20260504081517 46 355 0.0 0.0 0.00 0.03 0.00 65 1018.4
20260504044554 48 355 0.0 0.0 0.00 0.02 0.02 69 1019.5
20260504043053 48 355 0.0 0.0 0.00 0.02 0.02 70 1019.5
20260504041550 48 355 0.0 0.0 0.00 0.02 0.02 70 1019.6
20260504040052 49 355 0.0 0.0 0.00 0.02 0.02 70 1019.8
20260504034549 48 355 0.0 0.0 0.00 0.02 0.02 70 1020.0
20260504033049 48 355 0.0 0.0 0.00 0.02 0.02 71 1020.0
20260504031549 48 355 0.0 0.0 0.00 0.02 0.02 71 1019.9
20260504030047 48 355 0.0 0.0 0.00 0.02 0.02 71 1019.9
20260504024601 49 355 0.0 0.0 0.00 0.02 0.02 71 1019.9
20260504023048 49 355 0.0 0.0 0.00 0.02 0.02 72 1019.8
20260504021545 50 355 0.0 0.0 0.00 0.02 0.02 70 1019.7
20260504020045 50 355 0.0 0.0 0.00 0.02 0.02 70 1019.5
20260504014545 51 355 0.0 0.0 0.00 0.03 0.02 71 1019.5
20260504013043 52 355 0.0 0.0 0.00 0.03 0.02 68 1019.3
20260504011544 53 355 0.0 0.0 0.00 0.03 0.02 66 1019.3
20260504010042 55 355 0.0 0.0 0.00 0.03 0.02 67 1019.3
20260504004546 56 355 0.0 0.0 0.00 0.03 0.02 63 1019.2
20260504003046 57 355 0.0 0.0 0.00 0.03 0.02 63 1019.0
20260504001544 58 355 0.0 0.0 0.00 0.03 0.02 62 1019.0
20260504000106 58 355 0.0 0.0 0.00 0.03 0.02 62 1019.0
20260503234550 59 355 0.0 0.0 0.00 0.03 0.02 60 1019.1
20260503233039 59 355 0.0 0.0 0.00 0.03 0.02 60 1018.9
20260503231538 59 242 0.0 0.0 0.00 0.03 0.02 61 1019.0
20260503230036 59 242 0.0 0.9 0.00 0.03 0.02 60 1019.1
20260503224535 59 242 0.0 0.0 0.00 0.03 0.02 61 1019.2
20260503223038 59 307 0.0 0.0 0.00 0.03 0.02 66 1019.3
20260503221543 57 334 0.0 0.0 0.00 0.03 0.02 66 1019.4
20260503220032 58 319 0.0 0.0 0.00 0.03 0.02 68 1019.4
20260503214530 57 254 0.0 0.0 0.00 0.03 0.02 69 1019.5
20260503213030 58 258 0.0 0.0 0.00 0.03 0.02 67 1019.6
20260503211529 61 198 0.0 0.0 0.00 0.03 0.02 64 1019.6
20260503210029 63 302 0.0 0.0 0.00 0.03 0.02 52 1019.8
20260503204528 63 186 0.0 0.0 0.00 0.03 0.02 48 1020.1
20260503203039 64 175 0.0 0.0 0.01 0.03 0.02 48 1020.2
20260503201533 63 271 0.0 0.9 0.01 0.03 0.02 56 1020.3
20260503200026 63 235 0.0 0.9 0.01 0.03 0.02 58 1020.5
20260503194526 63 57 0.0 0.9 0.01 0.03 0.02 57 1020.9
20260503193025 64 240 0.0 0.0 0.00 0.02 0.01 57 1021.2
20260503191522 62 252 0.0 0.9 0.00 0.02 0.01 64 1021.2
20260503190019 60 221 0.0 0.0 0.00 0.02 0.01 64 1021.4
20260503184521 59 245 0.0 0.0 0.00 0.03 0.01 67 1021.6
20260503183022 57 221 0.0 0.0 0.00 0.03 0.01 67 1021.9
20260503181518 56 279 0.0 0.0 0.00 0.03 0.01 65 1021.9
20260503180026 56 107 0.0 0.0 0.00 0.03 0.01 67 1022.0
20260503174517 56 240 0.0 0.0 0.00 0.03 0.01 64 1022.2
20260503173035 61 292 0.0 3.5 0.00 0.03 0.01 58 1022.4
20260503171514 61 351 0.0 2.6 0.00 0.03 0.01 52 1022.4